When you browse on this site, cookies collect data to enhance your experience and personalize the content and advertising you see.
Visit our Privacy Policy to learn more. By continuing to use the site, you agree to this use of cookies and data.
  • In Portugal
  • List of Countries
  • For 7 days
  • Water Temperature
  • Satellite Maps
  • Weather Map
  • Weather Widgets
  • user-avatar
    Login

    Hourly Weather Chosciszowice

    Today, 21 March, Thursday

    Time Temperature Precipitation Wind Pressure Humidity
    00:00 +3°C° 0 mm 3 mps 757 mmHg 64%
    01:00 +4°C° 0 mm 3 mps 757 mmHg 63%
    02:00 +4°C° 0 mm 3 mps 757 mmHg 64%
    03:00 +3°C° 0 mm 3 mps 757 mmHg 65%
    04:00 +3°C° 0 mm 3 mps 757 mmHg 66%
    05:00 +3°C° 0 mm 3 mps 757 mmHg 67%
    06:00 +3°C° 0 mm 3 mps 757 mmHg 68%
    07:00 +4°C° 0 mm 3 mps 758 mmHg 69%
    08:00 +7°C° 0 mm 3 mps 758 mmHg 68%
    09:00 +9°C° 0 mm 3 mps 758 mmHg 67%
    10:00 +10°C° 0 mm 4 mps 758 mmHg 66%
    11:00 +12°C° 0 mm 4 mps 758 mmHg 64%
    12:00 +13°C° 0 mm 4 mps 758 mmHg 61%
    13:00 +14°C° 0 mm 3 mps 757 mmHg 59%
    14:00 +14°C° 0 mm 3 mps 757 mmHg 59%
    15:00 +14°C° 0 mm 3 mps 757 mmHg 59%
    16:00 +14°C° 0 mm 3 mps 756 mmHg 60%
    17:00 +14°C° 0 mm 2 mps 756 mmHg 67%
    18:00 +12°C° 0 mm 2 mps 756 mmHg 73%
    19:00 +11°C° 0 mm 1 mps 756 mmHg 80%
    20:00 +10°C° 0 mm 1 mps 756 mmHg 83%
    21:00 +9°C° 0 mm 2 mps 756 mmHg 85%
    22:00 +8°C° 0 mm 2 mps 756 mmHg 87%
    23:00 +8°C° 0 mm 2 mps 757 mmHg 88%

    Tomorrow, 22 March, Friday

    Time Temperature Precipitation Wind Pressure Humidity
    00:00 +8°C° 0 mm 2 mps 757 mmHg 89%
    01:00 +8°C° 0 mm 2 mps 757 mmHg 90%
    02:00 +7°C° 0 mm 2 mps 757 mmHg 91%
    03:00 +7°C° 0 mm 2 mps 756 mmHg 91%
    04:00 +8°C° 0 mm 1 mps 756 mmHg 91%
    05:00 +8°C° 0 mm 1 mps 756 mmHg 91%
    06:00 +8°C° 0 mm 1 mps 757 mmHg 90%
    07:00 +8°C° 0 mm 1 mps 757 mmHg 90%
    08:00 +10°C° 0 mm 1 mps 757 mmHg 83%
    09:00 +12°C° 0 mm 1 mps 757 mmHg 76%
    10:00 +14°C° 0 mm 1 mps 757 mmHg 69%
    11:00 +15°C° 0 mm 1 mps 757 mmHg 65%
    12:00 +16°C° 0 mm 1 mps 757 mmHg 61%
    13:00 +18°C° 0 mm 1 mps 757 mmHg 57%
    14:00 +18°C° 0 mm 1 mps 756 mmHg 56%
    15:00 +19°C° 0 mm 1 mps 756 mmHg 55%
    16:00 +19°C° 0 mm 1 mps 755 mmHg 55%
    17:00 +16°C° 0 mm 1 mps 755 mmHg 62%
    18:00 +14°C° 0 mm 2 mps 755 mmHg 69%
    19:00 +13°C° 0 mm 2 mps 755 mmHg 76%
    20:00 +12°C° 0 mm 2 mps 755 mmHg 79%
    21:00 +12°C° 0 mm 2 mps 755 mmHg 82%
    22:00 +10°C° 0 mm 2 mps 755 mmHg 86%
    23:00 +10°C° 0 mm 2 mps 754 mmHg 87%

    Day after tomorrow, 23 March, Saturday

    Time Temperature Precipitation Wind Pressure Humidity
    00:00 +9°C° 0 mm 2 mps 754 mmHg 87%
    01:00 +9°C° 0 mm 2 mps 754 mmHg 88%
    02:00 +9°C° 0 mm 2 mps 754 mmHg 88%
    03:00 +9°C° 0 mm 2 mps 753 mmHg 88%
    04:00 +9°C° 0 mm 1 mps 753 mmHg 87%
    05:00 +9°C° 0 mm 2 mps 753 mmHg 86%
    06:00 +9°C° 0 mm 2 mps 753 mmHg 84%
    07:00 +9°C° 0 mm 2 mps 753 mmHg 83%
    08:00 +13°C° 0 mm 2 mps 753 mmHg 74%
    09:00 +15°C° 0 mm 2 mps 752 mmHg 65%
    10:00 +17°C° 0 mm 3 mps 752 mmHg 56%
    11:00 +18°C° 0 mm 3 mps 752 mmHg 52%
    12:00 +19°C° 0 mm 3 mps 752 mmHg 49%
    13:00 +20°C° 0 mm 3 mps 752 mmHg 45%
    14:00 +20°C° 0 mm 3 mps 751 mmHg 46%
    15:00 +19°C° 0 mm 3 mps 751 mmHg 47%
    16:00 +19°C° 0 mm 3 mps 751 mmHg 48%
    17:00 +17°C° 0 mm 3 mps 751 mmHg 56%
    18:00 +16°C° 0 mm 3 mps 751 mmHg 64%
    19:00 +14°C° 0 mm 2 mps 751 mmHg 72%
    20:00 +12°C° 0 mm 3 mps 752 mmHg 77%
    21:00 +11°C° 0 mm 3 mps 752 mmHg 82%
    22:00 +10°C° 0 mm 3 mps 753 mmHg 86%
    23:00 +9°C° 0.1 mm 3 mps 753 mmHg 82%

    24 March, Sunday

    Time Temperature Precipitation Wind Pressure Humidity
    00:00 +9°C° 0.1 mm 3 mps 753 mmHg 78%
    01:00 +8°C° 0.1 mm 3 mps 753 mmHg 73%
    02:00 +7°C° 0 mm 3 mps 753 mmHg 68%
    03:00 +7°C° 0 mm 3 mps 753 mmHg 63%
    04:00 +6°C° 0 mm 2 mps 754 mmHg 58%
    05:00 +6°C° 0 mm 2 mps 754 mmHg 59%
    06:00 +4°C° 0 mm 3 mps 754 mmHg 60%
    07:00 +4°C° 0 mm 3 mps 754 mmHg 61%
    08:00 +6°C° 0 mm 2 mps 754 mmHg 56%
    09:00 +7°C° 0 mm 2 mps 754 mmHg 50%
    10:00 +8°C° 0 mm 2 mps 754 mmHg 45%
    11:00 +9°C° 0 mm 2 mps 754 mmHg 42%
    12:00 +10°C° 0 mm 2 mps 753 mmHg 39%
    13:00 +10°C° 0 mm 2 mps 753 mmHg 37%
    14:00 +10°C° 0 mm 2 mps 753 mmHg 36%
    15:00 +10°C° 0 mm 2 mps 752 mmHg 36%
    16:00 +10°C° 0 mm 2 mps 752 mmHg 36%
    17:00 +9°C° 0 mm 2 mps 752 mmHg 41%
    18:00 +8°C° 0 mm 2 mps 752 mmHg 46%
    19:00 +6°C° 0 mm 2 mps 752 mmHg 52%
    20:00 +5°C° 0 mm 2 mps 752 mmHg 55%
    21:00 +6°C° 0 mm 1 mps 752 mmHg 58%
    22:00 +5°C° 0 mm 1 mps 752 mmHg 61%
    23:00 +5°C° 0 mm 1 mps 752 mmHg 63%

    25 March, Monday

    Time Temperature Precipitation Wind Pressure Humidity
    00:00 +4°C° 0 mm 1 mps 752 mmHg 65%
    01:00 +4°C° 0 mm 1 mps 752 mmHg 66%
    02:00 +3°C° 0 mm 2 mps 752 mmHg 66%
    03:00 +3°C° 0 mm 2 mps 752 mmHg 65%
    04:00 +3°C° 0 mm 3 mps 752 mmHg 65%
    05:00 +3°C° 0 mm 3 mps 752 mmHg 68%
    06:00 +1°C° 0 mm 4 mps 752 mmHg 70%
    07:00 +1°C° 0 mm 5 mps 752 mmHg 73%
    08:00 +2°C° 0 mm 5 mps 752 mmHg 68%
    09:00 +3°C° 0 mm 6 mps 751 mmHg 63%
    10:00 +5°C° 0 mm 7 mps 751 mmHg 58%
    11:00 +5°C° 0.1 mm 7 mps 751 mmHg 59%
    12:00 +5°C° 0.1 mm 7 mps 750 mmHg 61%
    13:00 +5°C° 0.1 mm 7 mps 750 mmHg 63%
    14:00 +5°C° 0.1 mm 7 mps 750 mmHg 63%
    15:00 +5°C° 0.1 mm 7 mps 749 mmHg 63%
    16:00 +5°C° 0.1 mm 7 mps 749 mmHg 63%
    17:00 +5°C° 0.2 mm 7 mps 749 mmHg 66%
    18:00 +4°C° 0.2 mm 7 mps 749 mmHg 69%
    19:00 +4°C° 0.2 mm 7 mps 749 mmHg 72%
    20:00 +3°C° 0.1 mm 7 mps 749 mmHg 74%
    21:00 +3°C° 0.1 mm 7 mps 749 mmHg 76%
    22:00 +3°C° 0.1 mm 7 mps 748 mmHg 78%
    23:00 +2°C° 0.3 mm 7 mps 748 mmHg 77%

    26 March, Tuesday

    Time Temperature Precipitation Wind Pressure Humidity
    00:00 +2°C° 0.3 mm 6 mps 748 mmHg 77%
    01:00 +2°C° 0.3 mm 6 mps 748 mmHg 76%
    02:00 +1°C° 0 mm 6 mps 748 mmHg 78%
    03:00 0°C° 0 mm 5 mps 748 mmHg 79%
    04:00 0°C° 0 mm 5 mps 747 mmHg 80%
    05:00 0°C° 0 mm 5 mps 748 mmHg 79%
    06:00 -1°C° 0 mm 6 mps 748 mmHg 78%
    07:00 -1°C° 0 mm 6 mps 748 mmHg 77%
    08:00 +1°C° 0.1 mm 6 mps 748 mmHg 70%
    09:00 +2°C° 0.1 mm 7 mps 749 mmHg 62%
    10:00 +3°C° 0.1 mm 7 mps 749 mmHg 55%
    11:00 +4°C° 0 mm 7 mps 749 mmHg 48%
    12:00 +4°C° 0 mm 7 mps 749 mmHg 42%
    13:00 +5°C° 0 mm 7 mps 750 mmHg 35%
    14:00 +5°C° 0 mm 7 mps 750 mmHg 38%
    15:00 +5°C° 0 mm 7 mps 750 mmHg 40%
    16:00 +5°C° 0 mm 7 mps 750 mmHg 43%
    17:00 +4°C° 0 mm 6 mps 751 mmHg 47%
    18:00 +4°C° 0 mm 4 mps 751 mmHg 51%
    19:00 +3°C° 0 mm 3 mps 752 mmHg 56%
    20:00 +2°C° 0 mm 3 mps 752 mmHg 59%
    21:00 +1°C° 0 mm 3 mps 753 mmHg 63%
    22:00 +1°C° 0 mm 2 mps 753 mmHg 67%
    23:00 +1°C° 0 mm 2 mps 753 mmHg 70%
    Show more